Location: Moscow
(55.7500°N, 37.5830°E)
Time: 00:04:47
(UTC+03:00)

COSMOS 2251 DEB - Pass Details

Date: 03 July 2022
Orbit: 738 x 847 km, 74.1° (Epoch: 17 August)

Event Time Altitude Azimuth Distance (km) Brightness Sun altitude
Rises 01:32:41 0° 325° (NW) 3,282 ? -10.3°
Reaches altitude 10° 01:36:22 10° 351° (N) 2,326 ? -10.2°
Maximum altitude 01:39:04 14° 22° (NNE) 2,045 ? -10.1°
Drops below altitude 10° 01:41:44 10° 53° (NE) 2,291 ? -10.0°
Sets 01:45:19 0° 79° (E) 3,197 ? -9.8°
